Weather History for Puebla, Mexico

Change the Weather History Date:

Monday, October 28, 2013

  Actual Average Record
Temperature  
Mean Temperature 64 °F -  
Max Temperature 77 °F 67 °F 77 °F (2011)
Min Temperature 50 °F 44 °F 39 °F (2011)
Degree Days  
Heating Degree Days 2    
Growing Degree Days 14 (Base 50)    
Moisture  
Dew Point 46 °F    
Average Humidity 56    
Maximum Humidity 93    
Minimum Humidity 13    
Precipitation  
Precipitation 0.00 in - - ()
Sea Level Pressure  
Sea Level Pressure 30.20 in    
Wind  
Wind Speed 4 mph ()    
Max Wind Speed 12 mph    
Max Gust Speed -    
Visibility 8.1 miles    
Events      
Averages and records for this station are not official NWS values.
T = Trace of Precipitation, MM = Missing Value Source: Averaged Metar Reports

Daily Weather History Graph

Daily Weather History Graph

Search for Another Location

Airport:

Trip Planner

Search our weather history database for the weather conditions in past years. The results will help you decide how hot, cold, wet, or windy it might be!

Date:

Astronomy

Oct. 28, 2013 Rise Set
Actual Time 6:32 AM CST 6:01 PM CST
Civil Twilight 6:09 AM CST 6:24 PM CST
Nautical Twilight 5:44 AM CST 6:50 PM CST
Astronomical Twilight 5:18 AM CST 7:15 PM CST
Moon 1:13 AM CST (10/28) 2:01 PM CST (10/28)
Length of Visible Light 12h 14m
Length of Day
11h 29m
Waning Crescent, 33% of the Moon is Illuminated
Oct 28
Waning Crescent
Nov 3
New
Nov 9
First Quarter
Nov 17
Full
Nov 25
Last Quarter

Hourly Weather History & Observations

Time (CST) Temp. Windchill Dew Point Humidity Pressure Visibility Wind Dir Wind Speed Gust Speed Precip Events Conditions
2:50 AM 53 °F - 50 °F 84% 29.86 in 3 mi Calm Calm - -  
4:43 AM 48.2 °F - 46.4 °F 93% 30.32 in 8.0 mi WNW 5.8 mph - N/A   Scattered Clouds
5:41 AM 46.4 °F 42.4 °F 44.6 °F 93% 30.32 in 8.0 mi NNW 8.1 mph - N/A   Scattered Clouds
5:50 AM 51 °F - 48 °F 87% 29.94 in 3 mi Calm Calm - -  
6:50 AM 48.2 °F - 44.6 °F 87% 30.35 in 8.0 mi NNW 5.8 mph - N/A   Scattered Clouds
7:55 AM 55.4 °F - 48.2 °F 77% 30.37 in 8.0 mi NNW 9.2 mph - N/A   Scattered Clouds
8:41 AM 62.6 °F - 46.4 °F 55% 30.38 in 8.0 mi North 9.2 mph - N/A   Scattered Clouds
8:50 AM 59 °F - 47 °F 56% 30.01 in 6 mi Calm Calm - -   Clear
9:45 AM 66.2 °F - 41.0 °F 40% 30.39 in 8.0 mi NNW 5.8 mph - N/A   Scattered Clouds
10:40 AM 68.0 °F - 39.2 °F 35% 30.39 in 8.0 mi Calm Calm - N/A   Partly Cloudy
11:45 AM 71.6 °F - 39.2 °F 31% 30.36 in 8.0 mi SSE 3.5 mph - N/A   Partly Cloudy
11:50 AM 71 °F - 39 °F 20% 29.97 in 12 mi North 2.2 mph - -  
12:41 PM 73.4 °F - 42.8 °F 33% 30.34 in 8.0 mi East 4.6 mph - N/A   Partly Cloudy
1:41 PM 73.4 °F - 42.8 °F 33% 30.31 in 8.0 mi SSE 6.9 mph - N/A   Partly Cloudy
2:50 PM 76 °F - 35 °F 13% 29.82 in 12 mi SSE 4.5 mph - -   Scattered Clouds
2:50 PM 75.2 °F - 42.8 °F 31% 30.29 in 10.0 mi SSE 8.1 mph - N/A   Clear
3:51 PM 73.4 °F - 48.2 °F 41% 30.28 in 10.0 mi SSW 9.2 mph - N/A   Clear
5:17 PM 69.8 °F - 48.2 °F 46% 30.29 in 10.0 mi SSW 11.5 mph - N/A   Scattered Clouds
5:44 PM 69.8 °F - 48.2 °F 46% 30.29 in 10.0 mi South 10.4 mph - N/A   Scattered Clouds
5:45 PM 70 °F - 41 °F 23% 29.75 in 9 mi SSE 4.5 mph - -   Haze
7:03 PM 60.8 °F - 53.6 °F 77% 30.32 in 8.0 mi South 6.9 mph - N/A   Scattered Clouds
7:46 PM 60.8 °F - 51.8 °F 72% 30.34 in 10.0 mi SW 6.9 mph - N/A   Scattered Clouds
8:56 PM 64 °F - 49 °F 48% 29.77 in 3 mi Calm Calm - -   Mostly Cloudy
9:13 PM 59.0 °F - 53.6 °F 82% 30.39 in 10.0 mi North 3.5 mph - N/A   Scattered Clouds
9:49 PM 59.0 °F - 51.8 °F 77% 30.40 in 10.0 mi North 4.6 mph - N/A   Scattered Clouds
10:54 PM 57.2 °F - 51.8 °F 82% 30.39 in 10.0 mi North 5.8 mph - N/A   Scattered Clouds
11:58 PM 60 °F - 50 °F 61% 29.88 in 3 mi Calm Calm - -   Partly Cloudy